Fremont, NE

6:10 AM CDT on September 21, 2017 (GMT -0500)
Fremont Municipal

Weather History for KFET - March, 2014

Change the Weather History Date:

Tuesday, March 25, 2014

  Actual Average Record
Temperature  
Mean Temperature 29 °F -  
Max Temperature 39 °F 55 °F 100 °F (1997)
Min Temperature 20 °F 30 °F 5 °F (1955)
Degree Days  
Heating Degree Days 36    
Moisture  
Dew Point 12 °F    
Average Humidity 55    
Maximum Humidity 97    
Minimum Humidity 25    
Precipitation  
Precipitation 0.00 in - - ()
Sea Level Pressure  
Sea Level Pressure 30.29 in    
Wind  
Wind Speed 11 mph (WNW)    
Max Wind Speed 22 mph    
Max Gust Speed 32 mph    
Visibility 10 miles    
Events      
Averages and records for this station are not official NWS values.
T = Trace of Precipitation, MM = Missing Value Source: NWS Daily Summary

Daily Weather History Graph

Daily Weather History Graph

Search for Another Location

Airport or City:

Trip Planner

Search our weather history database for the weather conditions in past years. The results will help you decide how hot, cold, wet, or windy it might be!

Date:

Astronomy

Mar. 25, 2014 Rise Set
Actual Time 7:20 AM CDT 7:43 PM CDT
Civil Twilight 6:53 AM CDT 8:11 PM CDT
Nautical Twilight 6:20 AM CDT 8:44 PM CDT
Astronomical Twilight 5:47 AM CDT 9:17 PM CDT
Moon 3:47 AM CDT (3/25) 2:12 PM CDT (3/25)
Length of Visible Light 13h 18m
Length of Day
12h 22m
Waning Crescent, 32% of the Moon is Illuminated
Mar 25
Waning Crescent
Mar 30
New
Apr 7
First Quarter
Apr 15
Full
Apr 22
Last Quarter

Hourly Weather History & Observations

Time (CDT) Temp. Windchill Dew Point Humidity Pressure Visibility Wind Dir Wind Speed Gust Speed Precip Events Conditions
12:15 AM 25.2 °F 15.7 °F 20.1 °F 81% 30.26 in 10.0 mi WNW 9.2 mph - N/A   Mostly Cloudy
12:35 AM 28.4 °F 17.0 °F 24.6 °F 86% 30.27 in 10.0 mi NW 15.0 mph - N/A   Overcast
12:55 AM 28.2 °F 18.3 °F 25.5 °F 90% 30.28 in 10.0 mi NW 11.5 mph - N/A   Overcast
1:15 AM 27.7 °F 19.6 °F 24.4 °F 88% 30.28 in 10.0 mi NNW 8.1 mph - N/A   Mostly Cloudy
1:35 AM 26.6 °F 18.2 °F 23.9 °F 90% 30.28 in 10.0 mi NW 8.1 mph - N/A   Scattered Clouds
1:55 AM 24.6 °F 16.7 °F 22.6 °F 92% 30.28 in 10.0 mi WNW 6.9 mph - N/A   Scattered Clouds
2:15 AM 21.9 °F 13.4 °F 20.8 °F 96% 30.29 in 10.0 mi WNW 6.9 mph - N/A   Scattered Clouds
2:35 AM 22.1 °F 12.8 °F 21.0 °F 96% 30.29 in 10.0 mi WNW 8.1 mph - N/A   Mostly Cloudy
2:55 AM 22.8 °F 13.6 °F 22.1 °F 97% 30.30 in 10.0 mi West 8.1 mph - N/A   Mostly Cloudy
3:15 AM 23.0 °F 12.4 °F 22.1 °F 96% 30.30 in 10.0 mi West 10.4 mph - N/A   Mostly Cloudy
3:35 AM 22.1 °F 12.0 °F 21.2 °F 96% 30.30 in 10.0 mi West 9.2 mph - N/A   Clear
3:55 AM 21.2 °F 10.9 °F 19.9 °F 95% 30.31 in 10.0 mi WNW 9.2 mph - N/A   Clear
4:15 AM 23.4 °F 12.8 °F 21.2 °F 91% 30.31 in 10.0 mi WNW 10.4 mph - N/A   Clear
4:35 AM 24.1 °F 11.5 °F 20.7 °F 87% 30.32 in 10.0 mi WNW 15.0 mph - N/A   Clear
4:55 AM 23.4 °F 12.2 °F 20.3 °F 88% 30.33 in 10.0 mi WNW 11.5 mph - N/A   Clear
5:15 AM 22.6 °F 10.7 °F 19.4 °F 87% 30.33 in 10.0 mi NW 12.7 mph - N/A   Clear
5:35 AM 21.7 °F 10.8 °F 18.5 °F 87% 30.33 in 10.0 mi NW 10.4 mph - N/A   Clear
5:55 AM 21.7 °F 10.8 °F 17.4 °F 83% 30.34 in 10.0 mi NW 10.4 mph - N/A   Clear
6:15 AM 21.6 °F 8.8 °F 16.7 °F 82% 30.35 in 10.0 mi NW 13.8 mph - N/A   Clear
6:35 AM 20.7 °F 8.8 °F 16.3 °F 83% 30.35 in 10.0 mi WNW 11.5 mph - N/A   Clear
6:55 AM 21.0 °F 8.1 °F 16.0 °F 81% 30.36 in 10.0 mi WNW 13.8 mph - N/A   Clear
7:15 AM 21.0 °F 7.1 °F 14.7 °F 77% 30.36 in 10.0 mi WNW 16.1 mph 20.7 mph N/A   Clear
7:35 AM 20.5 °F 6.9 °F 13.8 °F 75% 30.37 in 10.0 mi WNW 15.0 mph - N/A   Clear
7:55 AM 21.6 °F 7.8 °F 13.1 °F 70% 30.37 in 10.0 mi NW 16.1 mph 26.5 mph N/A   Clear
8:15 AM 21.9 °F 8.7 °F 14.4 °F 73% 30.38 in 10.0 mi WNW 15.0 mph - N/A   Clear
8:35 AM 22.6 °F 8.7 °F 12.9 °F 66% 30.39 in 10.0 mi NW 17.3 mph 25.3 mph N/A   Clear
8:55 AM 23.5 °F 9.4 °F 13.1 °F 64% 30.40 in 10.0 mi NW 18.4 mph - N/A   Clear
9:15 AM 24.1 °F 10.1 °F 13.3 °F 63% 30.40 in 10.0 mi NW 18.4 mph 23.0 mph N/A   Clear
9:35 AM 25.3 °F 10.7 °F 12.7 °F 59% 30.40 in 10.0 mi NW 21.9 mph 28.8 mph N/A   Clear
9:55 AM 25.5 °F 12.0 °F 11.1 °F 54% 30.41 in 10.0 mi NW 18.4 mph 25.3 mph N/A   Clear
10:15 AM 26.6 °F 12.7 °F 10.2 °F 50% 30.40 in 10.0 mi NW 20.7 mph 25.3 mph N/A   Clear
10:35 AM 27.7 °F 13.8 °F 9.5 °F 46% 30.41 in 10.0 mi NW 21.9 mph 32.2 mph N/A   Clear
10:55 AM 28.4 °F 15.4 °F 9.9 °F 46% 30.41 in 10.0 mi NW 19.6 mph 26.5 mph N/A   Clear
11:15 AM 29.1 °F 18.4 °F 10.0 °F 45% 30.40 in 10.0 mi NW 13.8 mph 27.6 mph N/A   Clear
11:35 AM 30.0 °F 17.5 °F 9.7 °F 43% 30.39 in 10.0 mi NW 19.6 mph 26.5 mph N/A   Clear
11:55 AM 31.1 °F 19.3 °F 9.1 °F 40% 30.39 in 10.0 mi NNW 18.4 mph 29.9 mph N/A   Clear
12:15 PM 31.8 °F 19.9 °F 8.8 °F 38% 30.38 in 10.0 mi NW 19.6 mph 26.5 mph N/A   Clear
12:35 PM 32.0 °F 22.5 °F 9.3 °F 39% 30.37 in 10.0 mi NW 12.7 mph 21.9 mph N/A   Clear
1:15 PM 33.6 °F 25.6 °F 7.7 °F 34% 30.35 in 10.0 mi NW 10.4 mph 27.6 mph N/A   Clear
1:35 PM 33.8 °F 23.9 °F 6.6 °F 32% 30.35 in 10.0 mi NW 15.0 mph 20.7 mph N/A   Clear
1:55 PM 34.9 °F 25.7 °F 7.7 °F 32% 30.33 in 10.0 mi West 13.8 mph 21.9 mph N/A   Clear
2:15 PM 35.2 °F 25.8 °F 7.7 °F 32% 30.32 in 10.0 mi WNW 15.0 mph 19.6 mph N/A   Clear
2:35 PM 35.8 °F 27.3 °F 7.7 °F 31% 30.31 in 10.0 mi West 12.7 mph 19.6 mph N/A   Clear
2:55 PM 36.5 °F 28.7 °F 7.3 °F 30% 30.29 in 10.0 mi WNW 11.5 mph 18.4 mph N/A   Clear
3:15 PM 36.7 °F 31.2 °F 6.6 °F 29% 30.28 in 10.0 mi WNW 6.9 mph - N/A   Clear
3:35 PM 37.8 °F 29.8 °F 6.3 °F 27% 30.28 in 10.0 mi NW 12.7 mph 18.4 mph N/A   Clear
3:55 PM 37.0 °F 30.4 °F 5.5 °F 27% 30.26 in 10.0 mi West 9.2 mph 17.3 mph N/A   Clear
4:15 PM 38.8 °F 30.4 °F 5.2 °F 25% 30.26 in 10.0 mi WNW 15.0 mph 18.4 mph N/A   Clear
4:35 PM 37.9 °F 33.5 °F 5.4 °F 26% 30.24 in 10.0 mi WSW 5.8 mph 9.2 mph N/A   Clear
4:55 PM 38.8 °F 31.6 °F 5.4 °F 25% 30.24 in 10.0 mi West 11.5 mph 16.1 mph N/A   Clear
5:15 PM 38.7 °F 32.4 °F 5.4 °F 25% 30.23 in 10.0 mi West 9.2 mph - N/A   Clear
5:35 PM 38.8 °F 33.2 °F 5.9 °F 25% 30.22 in 10.0 mi WNW 8.1 mph - N/A   Clear
5:55 PM 38.3 °F 33.2 °F 5.7 °F 26% 30.21 in 10.0 mi WNW 6.9 mph - N/A   Clear
6:15 PM 38.3 °F 35.9 °F 5.7 °F 26% 30.20 in 10.0 mi WSW 3.5 mph - N/A   Clear
6:35 PM 38.3 °F 35.9 °F 6.8 °F 27% 30.20 in 10.0 mi NW 3.5 mph - N/A   Clear
6:55 PM 36.9 °F - 6.3 °F 28% 30.19 in 10.0 mi Calm Calm - N/A   Clear
7:15 PM 36.5 °F 33.9 °F 6.8 °F 29% 30.19 in 10.0 mi West 3.5 mph - N/A   Clear
7:35 PM 35.8 °F - 6.6 °F 30% 30.18 in 10.0 mi Calm Calm - N/A   Clear
7:55 PM 35.4 °F - 6.8 °F 30% 30.18 in 10.0 mi Calm Calm - N/A   Clear
8:15 PM 34.7 °F - 6.6 °F 31% 30.18 in 10.0 mi Calm Calm - N/A   Clear
8:35 PM 33.6 °F - 7.3 °F 33% 30.18 in 10.0 mi Calm Calm - N/A   Clear
8:55 PM 33.4 °F - 7.0 °F 33% 30.17 in 10.0 mi Calm Calm - N/A   Clear
9:15 PM 32.0 °F 27.5 °F 7.9 °F 36% 30.17 in 10.0 mi ESE 4.6 mph - N/A   Clear
9:35 PM 29.1 °F 24.1 °F 8.6 °F 42% 30.17 in 10.0 mi East 4.6 mph - N/A   Clear
9:55 PM 30.2 °F 26.7 °F 8.6 °F 40% 30.16 in 10.0 mi ESE 3.5 mph - N/A   Clear
10:15 PM 28.4 °F 23.3 °F 9.7 °F 46% 30.16 in 10.0 mi ESE 4.6 mph - N/A   Clear
10:35 PM 28.9 °F 23.9 °F 9.9 °F 45% 30.16 in 10.0 mi ESE 4.6 mph - N/A   Clear
10:55 PM 29.3 °F 24.3 °F 10.9 °F 46% 30.15 in 10.0 mi ESE 4.6 mph - N/A   Clear
11:15 PM 27.3 °F 20.9 °F 12.0 °F 53% 30.14 in 10.0 mi SE 5.8 mph - N/A   Clear
11:35 PM 28.0 °F 20.8 °F 12.0 °F 51% 30.13 in 10.0 mi SE 6.9 mph - N/A   Clear
11:55 PM 29.3 °F 21.5 °F 10.4 °F 45% 30.13 in 10.0 mi SE 8.1 mph - N/A   Clear